Location: Voyageurs National Park
(48.5020°N, 92.9292°W)
Time: 04:57:32
(UTC-05:00)

Amateur Radio Satellites - All Passes

Search period start: 26 April 2017 04:27
Search period end: 27 April 2017 04:27
Location: Voyageurs National Park, 48.5020°N, 92.9292°W

Satellite Date Start Highest point End Downlink Frequencies (MHz)
Time Altitude Azimuth
KKS-1 26 Apr 04:32:48 04:37:12 59° 71° (ENE) 04:41:37 437.445
ITAMSAT 1 26 Apr 04:49:57 04:55:10 84° 106° (ESE) 05:00:21 435.822/435.867
ITUPSAT 1 26 Apr 04:58:47 05:00:02 11° 274° (W) 05:01:16 437.325
Gurwin Techsat 1B 26 Apr 05:01:49 05:05:23 19° 304° (NW) 05:08:56 435.225
CUBESAT XI-V 26 Apr 05:03:36 05:08:15 80° 258° (WSW) 05:12:58 437.345
STARS 26 Apr 05:06:44 05:11:05 59° 71° (ENE) 05:15:26 437.465
Oscar 19 26 Apr 05:08:11 05:09:25 11° 310° (NW) 05:10:41 437.125/150
PCSat 26 Apr 05:46:13 05:50:07 20° 330° (NNW) 05:54:02 145.827
AO-7 26 Apr 05:53:56 06:02:08 65° 296° (WNW) 06:10:19 .
YUBILEINY 26 Apr 05:57:01 06:05:38 65° 284° (WNW) 06:14:19 435.215
LilacSat-2 26 Apr 06:08:16 06:08:30 10° 87° (E) 06:08:42 437.200
KKS-1 26 Apr 06:11:11 06:14:09 17° 269° (W) 06:17:07 437.445
RS-15 26 Apr 06:20:51 06:29:02 22° 97° (E) 06:37:19 29.354- 29.394
M-CUBED/EXP-1 PRIME 26 Apr 06:24:42 06:28:44 30° 59° (ENE) 06:32:47 437.505
DOVE 4 26 Apr 06:29:54 06:34:02 30° 93° (E) 06:37:56 437.250
ITAMSAT 1 26 Apr 06:30:40 06:34:00 18° 304° (NW) 06:37:19 435.822/435.867
XW-2F 26 Apr 06:33:52 06:36:33 18° 92° (E) 06:39:13 145.980 - 146.000
STARS 26 Apr 06:44:57 06:47:48 17° 269° (W) 06:50:40 437.465
CUBESAT XI-V 26 Apr 06:45:57 06:46:25 10° 275° (W) 06:46:53 437.345
NUDT-PHONESAT 26 Apr 06:47:18 06:50:09 20° 93° (E) 06:52:59 437.300
SO-50 26 Apr 06:49:55 06:53:52 28° 117° (ESE) 06:57:47 436.795
STRAND 1 26 Apr 06:59:27 07:04:16 43° 67° (ENE) 07:09:05 437.568
XW-2D 26 Apr 07:22:17 07:26:06 66° 102° (ESE) 07:29:53 145.860 - 145.880
XW-2B 26 Apr 07:29:12 07:33:02 77° 102° (ESE) 07:36:50 145.730 - 145.750
CUTE-I 26 Apr 07:32:08 07:37:26 63° 102° (ESE) 07:42:41 437.470
PCSat 26 Apr 07:34:33 07:35:48 11° 356° (N) 07:37:03 145.827
LilacSat-2 26 Apr 07:39:27 07:43:17 78° 285° (WNW) 07:47:07 437.200
KAITUO 1B 26 Apr 07:40:20 07:44:08 83° 99° (E) 07:47:55 145.475/437.950
XW-2C 26 Apr 07:41:06 07:44:55 77° 285° (WNW) 07:48:44 145.795 - 145.815
HO-68 26 Apr 07:41:06 07:46:53 25° 91° (E) 07:52:38 435.675
AO-7 26 Apr 07:47:53 07:53:27 20° 319° (NW) 07:59:01 .
M-CUBED/EXP-1 PRIME 26 Apr 07:58:36 08:02:59 41° 257° (WSW) 08:07:26 437.505
YUBILEINY 26 Apr 07:59:15 08:04:31 17° 310° (NW) 08:09:50 435.215
XW-2F 26 Apr 08:07:17 08:10:52 40° 290° (WNW) 08:14:27 145.980 - 146.000
DOVE 4 26 Apr 08:07:30 08:11:46 35° 294° (WNW) 08:15:49 437.250
CUTE 1.7 + AOD 2 26 Apr 08:09:27 08:13:18 31° 95° (E) 08:17:07 437.475
NUDT-PHONESAT 26 Apr 08:20:46 08:24:10 34° 291° (WNW) 08:27:33 437.300
RS-15 26 Apr 08:27:16 08:39:17 74° 121° (ESE) 08:51:36 29.354- 29.394
FO-29 26 Apr 08:28:55 08:30:54 12° 51° (NE) 08:32:51 435.910
SO-50 26 Apr 08:29:42 08:34:09 47° 316° (NW) 08:38:34 436.795
SEEDS 26 Apr 08:30:35 08:34:29 34° 96° (E) 08:38:22 437.485
STRAND 1 26 Apr 08:39:12 08:43:36 29° 266° (W) 08:48:01 437.568
XW-2A 26 Apr 08:39:38 08:42:59 67° 102° (ESE) 08:46:19 145.665 - 145.685
UWE-3 26 Apr 08:56:58 09:00:36 28° 95° (E) 09:04:15 435.000/436.395/437.385
XW-2D 26 Apr 08:57:57 08:59:48 13° 299° (WNW) 09:01:39 145.860 - 145.880
Tancredo 1 26 Apr 09:04:11 09:06:40 22° 142° (SE) 09:09:09 437.200
XW-2B 26 Apr 09:05:16 09:06:40 12° 300° (WNW) 09:08:05 145.730 - 145.750
PRISM 26 Apr 09:08:15 09:11:50 28° 65° (ENE) 09:15:25 437.425
CUBEBUG 2 26 Apr 09:08:40 09:12:47 58° 101° (E) 09:16:56 437.445
TIGRISAT 26 Apr 09:10:46 09:13:48 19° 62° (ENE) 09:16:50 435.000
CUTE-I 26 Apr 09:12:57 09:17:03 23° 301° (WNW) 09:21:08 437.470
KAITUO 1B 26 Apr 09:16:38 09:17:33 11° 301° (WNW) 09:18:28 145.475/437.950
PCSat 26 Apr 09:18:31 09:21:41 15° 23° (NNE) 09:24:51 145.827
ISS 26 Apr 09:20:57 09:23:42 25° 143° (SE) 09:26:27 437.550
HO-68 26 Apr 09:28:06 09:35:18 75° 291° (WNW) 09:42:28 435.675
UNISAT 6 26 Apr 09:30:54 09:34:43 30° 66° (ENE) 09:38:30 437.425
AAUSAT CUBESAT 2 26 Apr 09:40:00 09:44:14 89° 109° (ESE) 09:48:26 437.432
CUTE 1.7 + AOD 2 26 Apr 09:45:20 09:49:06 30° 293° (WNW) 09:52:50 437.475
ZACube-1 26 Apr 09:53:20 09:57:30 63° 101° (E) 10:01:45 437.345
AO-73 26 Apr 10:00:30 10:04:42 69° 102° (ESE) 10:08:57 145.935
SEEDS 26 Apr 10:06:27 10:10:04 27° 294° (WNW) 10:13:41 437.485
FO-29 26 Apr 10:09:00 10:15:05 61° 71° (ENE) 10:20:33 435.910
SO-50 26 Apr 10:13:00 10:15:41 15° 338° (NNW) 10:18:21 436.795
XW-2A 26 Apr 10:14:38 10:15:15 10° 299° (WNW) 10:15:51 145.665 - 145.685
Oscar 11 26 Apr 10:16:43 10:21:06 84° 105° (ESE) 10:25:27 .
AIST 2D 26 Apr 10:18:35 10:19:32 11° 61° (ENE) 10:20:30 435.315
DELFI C3 26 Apr 10:28:50 10:32:34 35° 97° (E) 10:36:14 145.870
UWE-3 26 Apr 10:33:23 10:37:04 31° 293° (WNW) 10:40:48 435.000/436.395/437.385
Tancredo 1 26 Apr 10:39:13 10:42:19 80° 339° (NNW) 10:45:26 437.200
RS-15 26 Apr 10:40:52 10:52:44 51° 329° (NNW) 11:04:45 29.354- 29.394
PRISM 26 Apr 10:43:18 10:47:02 32° 264° (W) 10:50:48 437.425
TIGRISAT 26 Apr 10:45:53 10:50:10 54° 260° (W) 10:54:24 435.000
CUBEBUG 2 26 Apr 10:46:23 10:49:01 17° 299° (WNW) 10:51:40 437.445
EO-79 26 Apr 10:46:58 10:49:41 17° 61° (ENE) 10:52:24 145.935-145.965
DUCHIFAT 1 26 Apr 10:49:52 10:52:19 15° 59° (ENE) 10:54:45 145.980
ISS 26 Apr 10:56:42 10:59:57 76° 341° (NNW) 11:03:13 437.550
PCSat 26 Apr 11:01:17 11:06:31 45° 46° (NE) 11:11:43 145.827
UNISAT 6 26 Apr 11:07:30 11:11:24 31° 264° (W) 11:15:17 437.425
OBJECT BX 26 Apr 11:16:52 11:20:33 87° 282° (WNW) 11:24:13 145.990 - 145.960
HO-68 26 Apr 11:17:04 11:21:55 20° 312° (NW) 11:26:46 435.675
AAUSAT CUBESAT 2 26 Apr 11:17:22 11:19:03 12° 302° (WNW) 11:20:42 437.432
O/OREOS (USA 219) 26 Apr 11:19:05 11:23:41 79° 113° (ESE) 11:28:19 437.305
POLYITAN 1 26 Apr 11:24:40 11:28:32 37° 68° (ENE) 11:32:25 437.675
ZACube-1 26 Apr 11:30:47 11:33:22 16° 299° (WNW) 11:35:57 437.345
QB50P2 26 Apr 11:31:03 11:35:05 46° 70° (ENE) 11:39:08 145.880/145.840
ESTCUBE 1 26 Apr 11:36:51 11:39:39 16° 89° (E) 11:42:24 437.505/2401.250
AO-73 26 Apr 11:38:04 11:40:28 15° 300° (WNW) 11:42:53 145.935
AIST 2D 26 Apr 11:48:48 11:52:15 68° 258° (WSW) 11:55:44 435.315
BUGSAT 1 26 Apr 11:52:36 11:55:46 22° 63° (ENE) 11:58:56 437.445
NANOSAT C BR1 26 Apr 11:53:16 11:57:25 66° 74° (ENE) 12:01:37 145.865
Oscar 11 26 Apr 11:54:30 11:56:37 13° 302° (WNW) 11:58:44 .
FO-29 26 Apr 11:55:37 12:00:31 24° 267° (W) 12:05:04 435.910
SO-50 26 Apr 11:57:12 11:58:05 10° 3° (N) 11:58:58 436.795
DELFI C3 26 Apr 12:03:56 12:07:11 24° 295° (WNW) 12:10:25 145.870
Tancredo 1 26 Apr 12:15:28 12:18:28 44° 0° (N) 12:21:27 437.200
EO-79 26 Apr 12:20:51 12:25:01 60° 259° (W) 12:29:13 145.935-145.965
LO-87 26 Apr 12:22:08 12:25:45 78° 103° (ESE) 12:29:18 145.935 - 145.965
DUCHIFAT 1 26 Apr 12:23:19 12:27:30 68° 259° (WSW) 12:31:41 145.980
AO-85 26 Apr 12:31:14 12:33:51 16° 113° (ESE) 12:36:23 145.980
ISS 26 Apr 12:33:31 12:36:40 45° 1° (N) 12:39:50 437.550
PCSat 26 Apr 12:44:53 12:49:50 36° 247° (WSW) 12:54:45 145.827
SPROUT 26 Apr 12:56:51 13:00:27 26° 94° (E) 13:04:01 437.525
RS-15 26 Apr 12:57:36 13:08:49 37° 2° (N) 13:19:53 29.354- 29.394
50 SAT 26 Apr 12:59:49 13:01:55 15° 92° (E) 13:04:00 437.505
O/OREOS (USA 219) 26 Apr 13:00:31 13:03:41 18° 315° (NW) 13:06:53 437.305
POLYITAN 1 26 Apr 13:00:58 13:04:25 24° 266° (W) 13:07:53 437.675
Gurwin Techsat 1B 26 Apr 13:06:45 13:11:20 30° 63° (ENE) 13:15:56 435.225
Oscar 19 26 Apr 13:07:37 13:12:32 47° 68° (ENE) 13:17:30 437.125/150
QB50P2 26 Apr 13:08:00 13:11:07 20° 268° (W) 13:14:14 145.880/145.840
ESTCUBE 1 26 Apr 13:12:22 13:16:54 66° 287° (WNW) 13:21:24 437.505/2401.250
AO-7 26 Apr 13:15:36 13:21:06 20° 41° (NE) 13:26:37 .
BUGSAT 1 26 Apr 13:26:58 13:30:54 42° 261° (W) 13:34:49 437.445
VELOX 1 26 Apr 13:27:06 13:31:28 54° 100° (E) 13:35:48 145.980
NANOSAT C BR1 26 Apr 13:31:22 13:33:35 14° 271° (W) 13:35:49 145.865
SO-50 26 Apr 13:37:04 13:40:20 19° 28° (NNE) 13:43:35 436.795
UKube-1 26 Apr 13:48:12 13:51:50 26° 95° (E) 13:55:26 .
Tancredo 1 26 Apr 13:51:29 13:54:36 79° 19° (NNE) 13:57:42 437.200
LO-87 26 Apr 13:58:02 13:58:37 10° 301° (WNW) 13:59:12 145.935 - 145.965
YUBILEINY 26 Apr 14:06:17 14:12:37 21° 55° (NE) 14:18:56 435.215
AO-85 26 Apr 14:09:38 14:13:48 68° 310° (NW) 14:17:49 145.980
ISS 26 Apr 14:10:06 14:13:22 85° 16° (NNE) 14:16:37 437.550
DX 1 26 Apr 14:20:02 14:24:26 75° 104° (ESE) 14:28:46 434.975-435.025
50 SAT 26 Apr 14:31:45 14:35:05 41° 289° (WNW) 14:38:22 437.505
SPROUT 26 Apr 14:32:33 14:36:25 35° 293° (WNW) 14:40:16 437.525
ITAMSAT 1 26 Apr 14:33:18 14:37:46 30° 62° (ENE) 14:42:14 435.822/435.867
Gurwin Techsat 1B 26 Apr 14:46:02 14:51:07 45° 261° (W) 14:56:14 435.225
Oscar 19 26 Apr 14:47:42 14:52:04 27° 266° (W) 14:56:28 437.125/150
BEESAT 2 26 Apr 14:50:49 14:54:16 29° 117° (ESE) 14:57:46 435.950
BEESAT 3 26 Apr 14:52:00 14:55:56 71° 126° (SE) 14:59:56 437.485
ESTCUBE 1 26 Apr 14:52:13 14:52:50 10° 306° (NW) 14:53:27 437.505/2401.250
AO-7 26 Apr 15:04:15 15:12:24 65° 64° (ENE) 15:20:34 .
VELOX 1 26 Apr 15:04:21 15:07:34 20° 299° (WNW) 15:10:45 145.980
RS-15 26 Apr 15:12:34 15:24:42 55° 34° (NE) 15:36:22 29.354- 29.394
ITUPSAT 1 26 Apr 15:14:03 15:17:29 19° 91° (E) 15:20:53 437.325
SO-50 26 Apr 15:17:01 15:21:32 76° 49° (NE) 15:26:02 436.795
UKube-1 26 Apr 15:23:58 15:27:57 37° 293° (WNW) 15:31:54 .
Tancredo 1 26 Apr 15:27:44 15:30:15 22° 218° (SW) 15:32:45 437.200
ISS 26 Apr 15:46:59 15:49:32 21° 219° (SW) 15:52:05 437.550
AO-85 26 Apr 15:52:29 15:54:54 15° 332° (NNW) 15:57:18 145.980
DX 1 26 Apr 15:57:33 16:00:04 15° 302° (WNW) 16:02:34 434.975-435.025
YUBILEINY 26 Apr 16:02:13 16:11:02 79° 79° (E) 16:19:51 435.215
MOZHAYETS 4 26 Apr 16:06:09 16:10:15 31° 95° (E) 16:14:21
BEESAT 26 Apr 16:10:25 16:15:10 63° 102° (ESE) 16:19:54 436.000
ITAMSAT 1 26 Apr 16:12:07 16:17:04 44° 261° (W) 16:22:02 435.822/435.867
BEESAT 2 26 Apr 16:28:10 16:31:55 38° 317° (NW) 16:35:45 435.950
BEESAT 3 26 Apr 16:30:51 16:33:57 21° 326° (NW) 16:37:04 437.485
ITUPSAT 1 26 Apr 16:50:59 16:55:41 59° 289° (WNW) 17:00:23 437.325
CUBESAT XI-V 26 Apr 16:56:57 17:00:27 20° 91° (E) 17:03:56 437.345
AO-7 26 Apr 16:58:18 17:05:40 35° 264° (W) 17:13:05 .
SO-50 26 Apr 16:58:38 17:01:27 16° 249° (WSW) 17:04:16 436.795
XW-2F 26 Apr 17:18:55 17:21:13 16° 62° (ENE) 17:23:33 145.980 - 146.000
CUTE-I 26 Apr 17:19:15 17:23:32 25° 60° (ENE) 17:27:47 437.470
RS-15 26 Apr 17:25:42 17:37:46 66° 242° (WSW) 17:49:17 29.354- 29.394
NUDT-PHONESAT 26 Apr 17:30:43 17:33:09 17° 63° (ENE) 17:35:37 437.300
DOVE 4 26 Apr 17:37:41 17:42:46 49° 70° (ENE) 17:47:46 437.250
MOZHAYETS 4 26 Apr 17:43:16 17:47:26 34° 293° (WNW) 17:51:35
BEESAT 26 Apr 17:49:05 17:52:31 20° 301° (WNW) 17:55:56 436.000
KKS-1 26 Apr 17:56:12 18:00:39 70° 102° (ESE) 18:05:04 437.445
YUBILEINY 26 Apr 18:00:06 18:06:54 26° 281° (WNW) 18:13:44 435.215
XW-2D 26 Apr 18:06:53 18:10:32 53° 72° (ENE) 18:14:13 145.860 - 145.880
BEESAT 2 26 Apr 18:09:19 18:10:48 12° 339° (NNW) 18:12:17 435.950
XW-2B 26 Apr 18:13:46 18:17:27 62° 74° (ENE) 18:21:11 145.730 - 145.750
HO-68 26 Apr 18:14:06 18:20:05 30° 55° (NE) 18:26:05 435.675
KAITUO 1B 26 Apr 18:23:40 18:27:18 65° 74° (ENE) 18:31:00 145.475/437.950
LilacSat-2 26 Apr 18:24:32 18:28:18 87° 76° (ENE) 18:32:06 437.200
XW-2C 26 Apr 18:25:37 18:29:21 86° 80° (E) 18:33:08 145.795 - 145.815
STARS 26 Apr 18:28:20 18:32:42 67° 102° (ESE) 18:37:03 437.465
CUBESAT XI-V 26 Apr 18:33:32 18:38:09 54° 289° (WNW) 18:42:45 437.345
CUBEBUG 2 26 Apr 18:37:41 18:38:27 10° 57° (ENE) 18:39:12 437.445
XW-2F 26 Apr 18:51:24 18:55:01 49° 261° (W) 18:58:40 145.980 - 146.000
CUTE-I 26 Apr 18:57:57 19:03:14 58° 259° (W) 19:08:31 437.470
AAUSAT CUBESAT 2 26 Apr 19:00:58 19:02:36 12° 58° (ENE) 19:04:14 437.432
NUDT-PHONESAT 26 Apr 19:03:18 19:06:47 42° 261° (W) 19:10:19 437.300
CUTE 1.7 + AOD 2 26 Apr 19:05:31 19:09:20 35° 68° (ENE) 19:13:13 437.475
STRAND 1 26 Apr 19:09:03 19:09:44 10° 85° (E) 19:10:25 437.568
XW-2A 26 Apr 19:14:24 19:17:33 39° 71° (ENE) 19:20:42 145.665 - 145.685
DOVE 4 26 Apr 19:16:11 19:20:38 27° 267° (W) 19:25:02 437.250
AO-85 26 Apr 19:17:49 19:19:22 12° 23° (NNE) 19:20:53 145.980
ZACube-1 26 Apr 19:20:42 19:21:07 10° 56° (ENE) 19:21:32 437.345
SEEDS 26 Apr 19:25:36 19:29:28 37° 69° (ENE) 19:33:22 437.485
AO-73 26 Apr 19:27:00 19:27:59 11° 57° (ENE) 19:28:58 145.935
KKS-1 26 Apr 19:33:57 19:36:43 16° 301° (WNW) 19:39:28 437.445
RS-15 26 Apr 19:40:41 19:47:36 18° 266° (W) 19:54:23 29.354- 29.394
Oscar 11 26 Apr 19:41:23 19:43:32 14° 58° (ENE) 19:45:41 .
XW-2D 26 Apr 19:43:06 19:45:03 14° 270° (W) 19:47:02 145.860 - 145.880
O/OREOS (USA 219) 26 Apr 19:46:20 19:50:40 39° 56° (NE) 19:54:57 437.305
XW-2B 26 Apr 19:50:34 19:52:04 12° 272° (W) 19:53:33 145.730 - 145.750
UWE-3 26 Apr 19:57:23 20:01:16 36° 69° (ENE) 20:05:07 435.000/436.395/437.385
HO-68 26 Apr 20:00:10 20:07:18 70° 256° (WSW) 20:14:29 435.675
KAITUO 1B 26 Apr 20:00:38 20:01:46 11° 272° (W) 20:02:54 145.475/437.950
STARS 26 Apr 20:05:50 20:08:34 17° 301° (WNW) 20:11:18 437.465
CUBEBUG 2 26 Apr 20:10:02 20:14:22 77° 74° (ENE) 20:18:37 437.445
AAUSAT CUBESAT 2 26 Apr 20:33:15 20:37:24 88° 250° (WSW) 20:41:37 437.432
CUTE 1.7 + AOD 2 26 Apr 20:41:42 20:45:15 26° 266° (W) 20:48:49 437.475
NO-84 26 Apr 20:42:36 20:46:06 51° 143° (SE) 20:49:20 435.350 FM
STRAND 1 26 Apr 20:44:42 20:49:49 73° 103° (ESE) 20:54:55 437.568
XW-2A 26 Apr 20:48:32 20:50:30 15° 268° (W) 20:52:27 145.665 - 145.685
ZACube-1 26 Apr 20:52:30 20:56:41 78° 75° (ENE) 21:00:50 437.345
AO-85 26 Apr 20:56:57 21:00:44 43° 45° (NE) 21:04:38 145.980
AO-73 26 Apr 20:59:22 21:03:32 83° 77° (ENE) 21:07:42 145.935
SEEDS 26 Apr 21:01:51 21:05:16 24° 267° (W) 21:08:43 437.485
M-CUBED/EXP-1 PRIME 26 Apr 21:08:09 21:12:28 86° 111° (ESE) 21:16:26 437.505
Oscar 11 26 Apr 21:14:45 21:19:03 81° 255° (WSW) 21:23:24 .
DELFI C3 26 Apr 21:17:39 21:21:15 34° 68° (ENE) 21:24:53 145.870
O/OREOS (USA 219) 26 Apr 21:26:01 21:29:56 28° 255° (WSW) 21:33:50 437.305
BEESAT 2 26 Apr 21:27:32 21:29:57 15° 27° (NNE) 21:32:23 435.950
BEESAT 3 26 Apr 21:28:15 21:31:35 24° 37° (NE) 21:34:54 437.485
UWE-3 26 Apr 21:34:20 21:37:50 24° 266° (W) 21:41:18 435.000/436.395/437.385
CUBEBUG 2 26 Apr 21:49:46 21:51:30 12° 272° (W) 21:53:14 437.445
HO-68 26 Apr 21:52:50 21:56:21 14° 276° (W) 21:59:52 435.675
OBJECT BX 26 Apr 21:57:53 22:01:29 69° 74° (ENE) 22:05:08 145.990 - 145.960
NO-84 26 Apr 22:20:32 22:23:44 36° 341° (NNW) 22:26:41 435.350 FM
PRISM 26 Apr 22:20:38 22:24:09 26° 95° (E) 22:27:38 437.425
STRAND 1 26 Apr 22:24:55 22:28:28 19° 302° (WNW) 22:32:02 437.568
ZACube-1 26 Apr 22:32:07 22:33:31 11° 273° (W) 22:34:54 437.345
TIGRISAT 26 Apr 22:33:44 22:37:06 22° 93° (E) 22:40:30 435.000
AO-85 26 Apr 22:37:42 22:40:55 24° 243° (WSW) 22:44:15 145.980
AO-73 26 Apr 22:39:30 22:40:22 11° 273° (W) 22:41:14 145.935
ESTCUBE 1 26 Apr 22:39:39 22:43:14 23° 62° (ENE) 22:46:48 437.505/2401.250
M-CUBED/EXP-1 PRIME 26 Apr 22:43:56 22:46:12 14° 310° (NW) 22:48:25 437.505
DELFI C3 26 Apr 22:52:50 22:56:06 24° 266° (W) 22:59:24 145.870
UNISAT 6 26 Apr 22:54:34 22:58:35 38° 98° (E) 23:02:37 437.425
VELOX 1 26 Apr 22:54:49 22:56:18 12° 55° (NE) 22:57:47 145.980
FO-29 26 Apr 22:58:37 23:03:19 33° 96° (E) 23:08:12 435.910
LO-87 26 Apr 23:01:25 23:04:58 54° 73° (ENE) 23:08:33 145.935 - 145.965
BEESAT 2 26 Apr 23:04:28 23:08:31 62° 49° (NE) 23:12:32 435.950
BEESAT 3 26 Apr 23:05:30 23:09:28 57° 236° (WSW) 23:13:23 437.485
OBJECT BX 26 Apr 23:35:14 23:35:38 10° 272° (W) 23:36:03 145.990 - 145.960
50 SAT 26 Apr 23:37:08 23:38:31 12° 60° (ENE) 23:39:55 437.505
DX 1 26 Apr 23:45:11 23:47:34 15° 58° (ENE) 23:49:58 434.975-435.025
SPROUT 26 Apr 23:53:32 23:57:21 32° 67° (ENE) 00:01:11 437.525
PRISM 26 Apr 23:55:42 23:59:29 34° 293° (WNW) 00:03:13 437.425
NO-84 26 Apr 23:59:10 00:01:50 24° 2° (N) 00:04:22 435.350 FM
EO-79 27 Apr 00:02:33 00:05:17 17° 91° (E) 00:07:58 145.935-145.965
DUCHIFAT 1 27 Apr 00:04:42 00:07:01 14° 90° (E) 00:09:19 145.980
TIGRISAT 27 Apr 00:09:57 00:13:58 41° 291° (WNW) 00:18:00 435.000
ESTCUBE 1 27 Apr 00:15:26 00:19:46 46° 261° (W) 00:24:09 437.505/2401.250
VELOX 1 27 Apr 00:27:32 00:31:58 77° 75° (ENE) 00:36:28 145.980
UNISAT 6 27 Apr 00:31:38 00:35:08 25° 296° (WNW) 00:38:39 437.425
LO-87 27 Apr 00:37:03 00:38:45 13° 270° (W) 00:40:28 145.935 - 145.965
POLYITAN 1 27 Apr 00:40:58 00:44:56 39° 98° (E) 00:48:53 437.675
AIST 2D 27 Apr 00:43:09 00:46:41 86° 98° (E) 00:50:13 435.315
BEESAT 2 27 Apr 00:43:09 00:45:51 17° 247° (WSW) 00:48:32 435.950
FO-29 27 Apr 00:43:47 00:48:31 37° 294° (WNW) 00:53:25 435.910
UKube-1 27 Apr 00:45:53 00:49:51 36° 67° (ENE) 00:53:50 .
QB50P2 27 Apr 00:47:30 00:51:37 50° 100° (E) 00:55:43 145.880/145.840
BUGSAT 1 27 Apr 01:05:15 01:08:14 20° 93° (E) 01:11:12 437.445
50 SAT 27 Apr 01:07:32 01:10:59 62° 258° (WSW) 01:14:28 437.505
NANOSAT C BR1 27 Apr 01:09:12 01:13:24 72° 102° (ESE) 01:17:34 145.865
Oscar 19 27 Apr 01:17:17 01:19:14 12° 85° (E) 01:21:10 437.125/150
DX 1 27 Apr 01:18:47 01:23:10 80° 254° (WSW) 01:27:35 434.975-435.025
SPROUT 27 Apr 01:29:34 01:33:16 28° 265° (W) 01:37:00 437.525
NO-84 27 Apr 01:36:55 01:39:52 46° 24° (NNE) 01:42:40 435.350 FM
EO-79 27 Apr 01:37:16 01:41:23 54° 288° (WNW) 01:45:28 145.935-145.965
DUCHIFAT 1 27 Apr 01:38:57 01:43:06 62° 287° (WNW) 01:47:13 145.980
BEESAT 27 Apr 01:44:49 01:47:52 17° 57° (ENE) 01:50:54 436.000
PCSat 27 Apr 01:48:50 01:52:09 17° 105° (ESE) 01:55:28 145.827
VELOX 1 27 Apr 02:06:50 02:08:59 13° 272° (W) 02:11:08 145.980
POLYITAN 1 27 Apr 02:17:11 02:20:32 23° 296° (WNW) 02:23:52 437.675
UKube-1 27 Apr 02:22:16 02:25:56 27° 265° (W) 02:29:38 .
ITUPSAT 1 27 Apr 02:24:03 02:28:19 34° 66° (ENE) 02:32:37 437.325
QB50P2 27 Apr 02:24:04 02:27:05 19° 298° (WNW) 02:30:06 145.880/145.840
BUGSAT 1 27 Apr 02:39:59 02:43:47 41° 291° (WNW) 02:47:33 437.445
NANOSAT C BR1 27 Apr 02:46:18 02:48:36 15° 301° (WNW) 02:50:53 145.865
Oscar 19 27 Apr 02:54:08 02:59:24 80° 104° (ESE) 03:04:36 437.125/150
Gurwin Techsat 1B 27 Apr 02:57:58 03:03:13 54° 101° (E) 03:08:23 435.225
AO-7 27 Apr 03:03:40 03:07:49 14° 84° (E) 03:11:57 .
MOZHAYETS 4 27 Apr 03:11:24 03:15:43 45° 69° (ENE) 03:20:05
NO-84 27 Apr 03:14:44 03:17:12 25° 224° (SW) 03:19:35 435.350 FM
YUBILEINY 27 Apr 03:15:13 03:20:40 19° 74° (ENE) 03:26:07 435.215
BEESAT 27 Apr 03:20:20 03:25:05 75° 257° (WSW) 03:29:52 436.000
KKS-1 27 Apr 03:23:34 03:26:02 15° 57° (ENE) 03:28:31 437.445
PCSat 27 Apr 03:29:22 03:34:48 87° 301° (WNW) 03:40:17 145.827
STARS 27 Apr 03:54:40 03:56:52 14° 57° (ENE) 03:59:04 437.465
ITUPSAT 1 27 Apr 04:01:52 04:06:09 33° 264° (W) 04:10:28 437.325
CUBESAT XI-V 27 Apr 04:03:34 04:07:36 30° 65° (ENE) 04:11:42 437.345
